[[{"header":{"parameterUnit":"m.s-1","parameterCategory":1,"la1":30.2991,"la2":30.254,"lo1":-89.0895,"lo2":-89.0444,"dy":0.0017,"dx":0.0017,"nx":28,"ny":28,"refTime":"2026-02-17T03:00:00:Z","depth":0,"parameterNumber":2,"parameterNumberName":"U-component_of_WINDS"},"data":[0,0,0,0,0,0,0,0,0,0,0,0,0,0,0,0,0,0,0,0,0,0,0,0,0,0,0,0,0,0,0,0,0,0,0,0,0,0,0,0,0,0,0,0,0,0,0,0,0,0,0,0,0,0,0,0,0,0,-0.8735,-0.8735,0,-0.8694,-0.8693,-0.8693,-0.8651,-0.865,-0.865,-0.8649,-0.8604,-0.8603,-0.8602,0,0,0,0,0,0,0,0,0,0,0,0,0,-0.8776,-0.8775,-0.8735,-0.8735,-0.8734,-0.8694,-0.8693,-0.8692,-0.8651,-0.865,-0.865,-0.8649,-0.8604,-0.8603,-0.8602,0,0,0,0,0,0,0,0,0,0,0,0,0,-0.8749,-0.8775,-0.8735,-0.8709,-0.8706,-0.8694,-0.8693,-0.8692,-0.8651,-0.865,-0.865,-0.8649,-0.8604,-0.8603,-0.8602,-0.8612,0,0,-0.8599,-0.8598,0,0,0,0,0,0,0,0,-0.875,-0.8747,-0.8713,-0.871,-0.8707,-0.8677,-0.8691,-0.8665,-0.8651,-0.8672,-0.8649,-0.8648,-0.8628,-0.8625,-0.8619,-0.861,-0.8608,-0.8599,-0.8598,-0.8598,-0.8597,0,0,0,0,0,0,0,-0.8752,-0.8749,-0.8718,-0.8713,-0.8709,-0.8698,-0.8693,-0.8686,-0.8655,-0.867,-0.8667,-0.8663,-0.8627,-0.862,-0.8618,-0.8607,-0.8599,-0.8598,-0.8597,-0.8597,-0.8604,-0.8605,0,0,0,0,0,0,-0.8758,-0.875,-0.872,-0.8717,-0.8727,-0.8698,-0.8692,-0.8687,-0.8655,-0.8649,-0.8663,-0.8661,-0.8622,-0.8619,-0.8616,-0.8626,-0.8598,-0.8597,-0.8596,-0.8603,-0.8604,-0.8605,0,0,0,0,0,0,-0.8759,-0.8756,-0.8721,-0.8733,-0.8728,-0.8698,-0.8692,-0.8687,-0.8681,-0.865,-0.8644,-0.8663,-0.8622,-0.8617,-0.8614,-0.8624,-0.8596,-0.8595,-0.8602,-0.8604,-0.8605,-0.8647,0,0,0,0,0,0,-0.8761,-0.8757,-0.8761,-0.8733,-0.8727,-0.8721,-0.8693,-0.8687,-0.8679,-0.8676,-0.8648,-0.8643,-0.8621,-0.8615,-0.8613,-0.8622,-0.8594,-0.8601,-0.8603,-0.8604,-0.8644,-0.8649,-0.8653,0,0,0,0,0,-0.8762,-0.8773,-0.8761,-0.8758,-0.8732,-0.8722,-0.8718,-0.8693,-0.868,-0.8684,-0.8664,-0.8643,-0.8623,-0.8615,-0.8612,-0.8621,-0.8601,-0.8603,-0.8604,-0.8642,-0.8648,-0.8653,0,0,0,0,0,0,-0.8801,-0.8769,-0.8755,-0.8758,-0.8743,-0.8715,-0.8718,-0.87,-0.8688,-0.8685,-0.8654,-0.8648,-0.8648,-0.8634,-0.8626,-0.8629,-0.8609,-0.861,-0.8639,-0.8644,-0.8649,-0.8653,-0.8593,0,0,0,0,0,-0.8811,-0.8806,-0.8777,-0.8782,-0.8775,-0.8748,-0.8743,-0.8725,-0.8708,-0.8701,-0.8681,-0.8665,-0.8654,-0.8648,-0.8637,-0.8642,-0.8635,-0.8646,-0.8651,-0.8655,-0.8657,-0.8659,-0.8664,-0.8612,-0.8612,-0.8611,0,0,-0.8829,-0.8811,-0.8809,-0.879,-0.8776,-0.8771,-0.8743,-0.8739,-0.8735,-0.87,-0.8696,-0.8681,-0.866,-0.8661,-0.866,-0.8649,-0.8669,-0.8657,-0.8661,-0.866,-0.8661,-0.8666,-0.8671,-0.8613,-0.8613,-0.8612,0,0,-0.886,-0.8846,-0.8849,-0.8836,-0.8816,-0.8798,-0.8799,-0.8773,-0.8762,-0.8758,-0.8732,-0.8726,-0.8709,-0.8696,-0.8687,-0.8714,-0.8694,-0.871,-0.8735,-0.8737,-0.8742,-0.8745,-0.8756,-0.876,-0.8712,-0.8712,-0.8712,0,-0.8886,-0.8878,-0.8852,-0.885,-0.8843,-0.8812,-0.8815,-0.8803,-0.878,-0.8775,-0.8763,-0.8742,-0.8726,-0.8723,-0.873,-0.8723,-0.8723,-0.8714,-0.8743,-0.8746,-0.8749,-0.8759,-0.8763,-0.8714,-0.8714,-0.8714,-0.8714,0,-0.8911,-0.8906,-0.8911,-0.8891,-0.8883,-0.8884,-0.8858,-0.8853,-0.8836,-0.8819,-0.8815,-0.8794,-0.8779,-0.8777,-0.876,-0.8772,-0.8766,-0.8749,-0.8728,-0.8757,-0.8766,-0.8769,-0.8718,-0.8717,-0.8716,-0.8716,0,0,-0.8966,-0.8933,-0.8935,-0.8926,-0.8902,-0.8897,-0.8896,-0.8882,-0.8879,-0.8864,-0.8863,-0.8849,-0.8834,-0.8823,-0.8804,-0.8806,-0.883,-0.8789,-0.8788,-0.8799,-0.8844,-0.8858,-0.8863,-0.8817,-0.8818,-0.8818,-0.8846,0,-0.8994,-0.8992,-0.8969,-0.8972,-0.8968,-0.8939,-0.8937,-0.8922,-0.8906,-0.8899,-0.8881,-0.8873,-0.8852,-0.8846,-0.8847,-0.8828,-0.8839,-0.8825,-0.8815,-0.8815,-0.8823,-0.8867,-0.8882,-0.891,-0.8849,-0.885,-0.885,0,-0.9027,-0.9016,-0.902,-0.8996,-0.8993,-0.8993,-0.8979,-0.8973,-0.8955,-0.8943,-0.8932,-0.8911,-0.8908,-0.8888,-0.8882,-0.8873,-0.8868,-0.8857,-0.8858,-0.8857,-0.8836,-0.8869,-0.8918,-0.8923,-0.8855,-0.8855,-0.8854,0,-0.9069,-0.9054,-0.9055,-0.9048,-0.902,-0.9021,-0.9009,-0.899,-0.8984,-0.8971,-0.8967,-0.8953,-0.8946,-0.8936,-0.8911,-0.8899,-0.8909,-0.8887,-0.89,-0.8901,-0.8904,-0.8905,-0.8954,-0.8899,-0.8899,-0.8898,-0.8898,0,-0.9103,-0.9107,-0.9073,-0.9074,-0.9077,-0.905,-0.9054,-0.9039,-0.9023,-0.902,-0.8992,-0.899,-0.8957,-0.8951,-0.8931,-0.8931,-0.8927,-0.8918,-0.8913,-0.8921,-0.8923,-0.8918,-0.8916,-0.89,-0.8899,-0.8899,-0.8899,0,-0.9151,-0.9128,-0.9128,-0.9102,-0.9095,-0.9099,-0.9077,-0.9076,-0.9058,-0.9055,-0.9052,-0.9024,-0.9016,-0.899,-0.8974,-0.8961,-0.8966,-0.8956,-0.8973,-0.897,-0.8985,-0.8985,-0.9035,-0.904,-0.898,-0.8981,-0.8981,0,-0.9175,-0.9178,-0.9153,-0.9149,-0.9139,-0.9134,-0.9127,-0.91,-0.9095,-0.9075,-0.9077,-0.9066,-0.9056,-0.9043,-0.9021,-0.9009,-0.8999,-0.9017,-0.8997,-0.9005,-0.9001,-0.9001,-0.9002,-0.9022,-0.9023,-0.9023,-0.9024,0,-0.9221,-0.921,-0.9203,-0.9192,-0.9185,-0.9175,-0.9162,-0.9161,-0.9131,-0.9126,-0.9117,-0.911,-0.9094,-0.9084,-0.9068,-0.9055,-0.9035,-0.903,-0.9033,-0.9042,-0.9053,-0.9049,-0.8987,-0.903,-0.9029,-0.9029,-0.9028,-0.9028,-0.9259,-0.926,-0.9243,-0.9236,-0.9224,-0.9214,-0.9212,-0.9195,-0.9187,-0.9174,-0.9158,-0.9151,-0.9133,-0.9111,-0.9099,-0.9093,-0.9082,-0.9086,-0.9087,-0.9088,-0.9093,-0.9053,-0.909,-0.909,-0.909,-0.9089,-0.9089,0,-0.9305,-0.9292,-0.9286,-0.9271,-0.9265,-0.9247,-0.9233,-0.9229,-0.9224,-0.9209,-0.9201,-0.9191,-0.9181,-0.9158,-0.9146,-0.9146,-0.9136,-0.9144,-0.9144,-0.9142,-0.9102,-0.9102,-0.9152,-0.9152,-0.9152,-0.9152,-0.9152,-0.9152,-0.9328,-0.933,-0.9317,-0.9312,-0.9299,-0.9294,-0.9287,-0.9278,-0.9266,-0.9257,-0.9249,-0.9235,-0.9217,-0.9204,-0.9194,-0.9187,-0.9184,-0.9195,-0.9186,-0.915,-0.9144,-0.9139,-0.9138,-0.9195,-0.9195,-0.9226,-0.9226,-0.9226]},{"header":{"parameterUnit":"m.s-1","parameterCategory":1,"la1":30.2991,"la2":30.254,"lo1":-89.0895,"lo2":-89.0444,"dy":0.0017,"dx":0.0017,"nx":28,"ny":28,"refTime":"2026-02-17T03:00:00:Z","depth":0,"parameterNumber":3,"parameterNumberName":"V-component_of_WINDS"},"data":[0,0,0,0,0,0,0,0,0,0,0,0,0,0,0,0,0,0,0,0,0,0,0,0,0,0,0,0,0,0,0,0,0,0,0,0,0,0,0,0,0,0,0,0,0,0,0,0,0,0,0,0,0,0,0,0,0,0,-0.1726,-0.1724,0,-0.155,-0.1548,-0.1546,-0.147,-0.1471,-0.1471,-0.1471,-0.1289,-0.1284,-0.1279,0,0,0,0,0,0,0,0,0,0,0,0,0,-0.1995,-0.199,-0.1726,-0.1724,-0.1722,-0.1551,-0.1548,-0.1546,-0.147,-0.1471,-0.1471,-0.1471,-0.1291,-0.1285,-0.1279,0,0,0,0,0,0,0,0,0,0,0,0,0,-0.1855,-0.1989,-0.1727,-0.1664,-0.1656,-0.1551,-0.1548,-0.1545,-0.147,-0.1471,-0.1471,-0.1472,-0.1293,-0.1285,-0.1278,-0.1222,0,0,-0.1254,-0.1251,0,0,0,0,0,0,0,0,-0.1863,-0.1845,-0.1675,-0.1668,-0.1659,-0.1533,-0.1576,-0.1437,-0.147,-0.1541,-0.1471,-0.1472,-0.137,-0.1356,-0.1322,-0.1213,-0.1205,-0.1254,-0.1249,-0.1246,-0.1244,0,0,0,0,0,0,0,-0.1872,-0.1852,-0.1656,-0.1673,-0.1663,-0.1643,-0.1624,-0.1549,-0.1455,-0.1535,-0.1529,-0.1509,-0.1366,-0.1329,-0.1317,-0.1203,-0.1254,-0.1247,-0.1242,-0.1239,-0.1039,-0.1038,0,0,0,0,0,0,-0.1893,-0.186,-0.1662,-0.1651,-0.1764,-0.1638,-0.1617,-0.1573,-0.1456,-0.1438,-0.1509,-0.1506,-0.1342,-0.1326,-0.131,-0.1236,-0.1246,-0.1239,-0.1234,-0.1039,-0.1039,-0.1038,0,0,0,0,0,0,-0.1899,-0.1876,-0.1669,-0.1754,-0.1726,-0.1633,-0.1585,-0.1569,-0.1533,-0.1436,-0.1419,-0.1489,-0.1342,-0.1321,-0.1244,-0.1229,-0.1235,-0.1228,-0.104,-0.1039,-0.1038,-0.1089,0,0,0,0,0,0,-0.1907,-0.1878,-0.1857,-0.1754,-0.1722,-0.1607,-0.1584,-0.1565,-0.152,-0.1515,-0.1413,-0.1397,-0.1341,-0.1256,-0.1237,-0.1219,-0.1222,-0.1041,-0.104,-0.1038,-0.1088,-0.109,-0.1091,0,0,0,0,0,-0.1917,-0.1877,-0.1856,-0.1832,-0.1693,-0.1606,-0.1588,-0.1525,-0.1519,-0.1496,-0.1434,-0.14,-0.1234,-0.1249,-0.1226,-0.1206,-0.1042,-0.104,-0.1039,-0.1087,-0.1089,-0.1091,0,0,0,0,0,0,-0.1979,-0.1863,-0.1838,-0.1764,-0.1696,-0.1594,-0.1562,-0.1529,-0.146,-0.1458,-0.1382,-0.1359,-0.1289,-0.124,-0.1258,-0.1145,-0.1135,-0.1129,-0.118,-0.1181,-0.1182,-0.1196,-0.1216,0,0,0,0,0,-0.1985,-0.1925,-0.1826,-0.1771,-0.1738,-0.1656,-0.1616,-0.1574,-0.1499,-0.147,-0.1402,-0.1331,-0.1262,-0.1219,-0.1151,-0.1081,-0.1057,-0.1055,-0.1057,-0.1059,-0.1054,-0.1013,-0.1011,-0.1032,-0.1032,-0.1032,0,0,-0.1995,-0.1924,-0.1891,-0.1781,-0.1723,-0.1662,-0.1632,-0.1569,-0.1523,-0.146,-0.1383,-0.1331,-0.1247,-0.1173,-0.1137,-0.113,-0.1043,-0.1056,-0.1059,-0.1053,-0.1011,-0.1009,-0.1007,-0.1031,-0.1031,-0.1032,0,0,-0.1983,-0.1923,-0.1871,-0.1813,-0.1726,-0.1672,-0.166,-0.1563,-0.1526,-0.1448,-0.14,-0.1343,-0.1227,-0.1169,-0.1124,-0.109,-0.1056,-0.107,-0.1078,-0.1039,-0.1037,-0.1035,-0.1023,-0.1019,-0.1066,-0.1066,-0.1066,0,-0.2006,-0.1913,-0.1848,-0.1787,-0.174,-0.1681,-0.1627,-0.1574,-0.1469,-0.1438,-0.1431,-0.1285,-0.1224,-0.1136,-0.1128,-0.1093,-0.1076,-0.1081,-0.1043,-0.104,-0.1037,-0.1025,-0.102,-0.1068,-0.1068,-0.1068,-0.1068,0,-0.1946,-0.1882,-0.185,-0.1751,-0.1701,-0.1644,-0.1569,-0.1526,-0.1488,-0.1435,-0.1356,-0.1281,-0.1196,-0.1172,-0.1134,-0.1079,-0.1077,-0.1057,-0.1046,-0.1039,-0.1025,-0.102,-0.1072,-0.1071,-0.107,-0.107,0,0,-0.1968,-0.1834,-0.1823,-0.1777,-0.1677,-0.1626,-0.1566,-0.1484,-0.1449,-0.1378,-0.1326,-0.1229,-0.1211,-0.116,-0.1115,-0.1081,-0.1059,-0.1065,-0.1062,-0.1066,-0.0992,-0.1008,-0.1003,-0.1036,-0.1035,-0.1034,-0.1,0,-0.1942,-0.1833,-0.1772,-0.1688,-0.1628,-0.1571,-0.1519,-0.1452,-0.1401,-0.1342,-0.1285,-0.1218,-0.1198,-0.1167,-0.1131,-0.1069,-0.1043,-0.1071,-0.0986,-0.0983,-0.1008,-0.0996,-0.1012,-0.0983,-0.0994,-0.0993,-0.0992,0,-0.1896,-0.1828,-0.1738,-0.1645,-0.1617,-0.1572,-0.1492,-0.1436,-0.1359,-0.1324,-0.1268,-0.1223,-0.1157,-0.1151,-0.1059,-0.108,-0.1041,-0.1006,-0.1003,-0.0992,-0.0987,-0.0985,-0.0973,-0.0968,-0.0984,-0.0984,-0.0985,0,-0.1921,-0.1806,-0.1737,-0.17,-0.159,-0.1559,-0.1511,-0.1434,-0.1389,-0.1319,-0.1289,-0.1212,-0.117,-0.1111,-0.1047,-0.1048,-0.0961,-0.095,-0.093,-0.0931,-0.0913,-0.0915,-0.0895,-0.089,-0.089,-0.089,-0.089,0,-0.1897,-0.1845,-0.1747,-0.1705,-0.1644,-0.1575,-0.1516,-0.1464,-0.1396,-0.1342,-0.1289,-0.1239,-0.1157,-0.1098,-0.1047,-0.0978,-0.096,-0.0929,-0.0916,-0.0934,-0.0938,-0.0907,-0.0907,-0.0889,-0.0889,-0.0889,-0.0889,0,-0.1914,-0.1847,-0.1768,-0.1671,-0.1645,-0.1604,-0.152,-0.1477,-0.1423,-0.1356,-0.1336,-0.1252,-0.1179,-0.1109,-0.1011,-0.0977,-0.0908,-0.0891,-0.0935,-0.0927,-0.0911,-0.0914,-0.087,-0.086,-0.0863,-0.0863,-0.0863,0,-0.1904,-0.1862,-0.176,-0.1721,-0.1675,-0.1612,-0.1565,-0.1496,-0.145,-0.1358,-0.1326,-0.1249,-0.1184,-0.107,-0.0999,-0.0924,-0.0905,-0.0895,-0.0893,-0.0912,-0.0904,-0.0907,-0.0903,-0.0896,-0.0896,-0.0897,-0.0897,0,-0.1892,-0.1861,-0.1797,-0.1721,-0.1667,-0.1604,-0.1539,-0.151,-0.1427,-0.1378,-0.1303,-0.1253,-0.1153,-0.1078,-0.0994,-0.0945,-0.0907,-0.0898,-0.0889,-0.0907,-0.0933,-0.0918,-0.0939,-0.0899,-0.0899,-0.0899,-0.0899,-0.0899,-0.1894,-0.1854,-0.1777,-0.1707,-0.1651,-0.1591,-0.1546,-0.1487,-0.1424,-0.1338,-0.13,-0.1225,-0.1148,-0.1032,-0.0983,-0.0922,-0.0913,-0.0901,-0.0898,-0.0896,-0.0899,-0.0944,-0.0907,-0.0907,-0.0907,-0.0907,-0.0906,0,-0.1879,-0.1827,-0.1764,-0.1674,-0.162,-0.159,-0.1516,-0.1472,-0.1407,-0.1339,-0.1276,-0.119,-0.1116,-0.104,-0.0962,-0.0928,-0.0909,-0.091,-0.0912,-0.0901,-0.0912,-0.0927,-0.0927,-0.0927,-0.0927,-0.0927,-0.0927,-0.0927,-0.1865,-0.1796,-0.1756,-0.1659,-0.1606,-0.1532,-0.1493,-0.1438,-0.1383,-0.129,-0.1229,-0.118,-0.1108,-0.1025,-0.0956,-0.0935,-0.0909,-0.0915,-0.089,-0.0901,-0.09,-0.0899,-0.0913,-0.091,-0.091,-0.0883,-0.0883,-0.0883]}]]